Location: Anumalkud?ru
(16.4847°N, 80.6636°E)
Time: 15:53:42
(UTC+00:00)

Yuri Rocket - Pass Details

Date: 11 April 2026
Orbit: 567 x 1898 km, 28.2° (Epoch: 11 May)

Event Time Altitude Azimuth Distance (km) Brightness Sun altitude
Rises 14:43:39 0° 293° (WNW) 2,799 7.7 -26.8°
Reaches altitude 10° 14:45:45 10° 291° (WNW) 1,962 6.6 -27.3°
Enters shadow 14:49:28 63° 271° (W) 764 3.6 -28.1°
